Regional Weather Roundup
Issued by NWS Boston, MA

Home | Current Version | Previous Version | Text Only | Print | Product List | Glossary On
Versions: 1 2 3 4 5 6 7 8 9 10 11 12 13 14 15 16 17 18 19 20 21 22 23 24 25 26 27 28 29 30 31 32 33 34 35 36 37 38 39 40 41 42 43 44 45 46 47 48 49 50
324
ASUS41 KBOX 161110
RWRBOX

REGIONAL WEATHER ROUNDUP
NATIONAL WEATHER SERVICE TAUNTON MA
600 AM EST MON JAN 16 2017

NOTE:  "FAIR" INDICATES FEW OR NO CLOUDS BELOW 12,000 FEET WITH NO
SIGNIFICANT WEATHER AND/OR OBSTRUCTIONS TO VISIBILITY.

MAZALL-161200-
EASTERN MASSACHUSETTS

CITY           SKY/WX    TMP DP  RH WIND       PRES   REMARKS
BOSTON         CLEAR     26  15  63 CALM      30.43F
BEVERLY        CLEAR     15  11  83 CALM      30.42F
LAWRENCE       CLEAR     18  13  80 S3        30.43F
BEDFORD        CLEAR     13   8  81 CALM      30.42S
BLUE HILL        N/A     24   9  52 S6        30.38S WCI  17
NORWOOD        CLEAR     14  10  84 CALM      30.44S
MARSHFIELD     CLEAR     18  16  93 CALM      30.43S
PLYMOUTH       CLEAR     15  12  88 CALM      30.43R
TAUNTON        CLEAR     12   8  84 CALM      30.43R
NEW BEDFORD    CLEAR     17  13  84 CALM      30.43S
$$

MAZALL-161200-
CAPE COD AND THE ISLANDS

CITY           SKY/WX    TMP DP  RH WIND       PRES   REMARKS
FALMOUTH       CLEAR     14  10  85 MISG      30.44R
HYANNIS        CLEAR     16  12  84 CALM      30.43R
CHATHAM        CLEAR     21  16  81 CALM      30.44R
PROVINCETOWN   CLEAR     21  15  78 CALM      30.44R
NANTUCKET      CLEAR     22  15  75 CALM      30.43S
MARTHAS VNYRD  CLEAR     11   8  88 CALM      30.43S
$$

MAZALL-161200-
CENTRAL AND WESTERN MASSACHUSETTS

CITY           SKY/WX    TMP DP  RH WIND       PRES   REMARKS
WORCESTER      CLEAR     20  11  68 W6        30.36S WCI  12
FITCHBURG      CLEAR     16  12  84 CALM      30.41S
ORANGE         CLEAR     10   8  92 CALM      30.40S
SPRINGFIELD    CLEAR     12   8  86 CALM      30.41S
WESTFIELD      CLEAR     14  11  87 CALM      30.42S
NORTH ADAMS    CLEAR     11   8  88 CALM      30.40F
PITTSFIELD     CLEAR     14  10  84 CALM      30.34S
$$

RIZALL-161200-
RHODE ISLAND

CITY           SKY/WX    TMP DP  RH WIND       PRES   REMARKS
PROVIDENCE     CLEAR     20  16  84 CALM      30.44S
NEWPORT        CLEAR     22  17  81 N3        30.42S
SMITHFIELD     CLEAR     16  12  84 CALM      30.41S
WESTERLY       CLEAR     19  13  77 CALM      30.44S
$$

CTZALL-161200-
CONNECTICUT

CITY           SKY/WX    TMP DP  RH WIND       PRES   REMARKS
BRADLEY INTL   CLEAR     17  14  88 CALM      30.43S
HARTFORD       CLEAR     18  16  92 CALM      30.45S
BRIDGEPORT     CLEAR     23  16  74 CALM      30.44S
DANBURY        CLEAR     14  11  87 CALM      30.44R
GROTON         CLEAR     20  15  81 N5        30.43S WCI  13
NEW HAVEN      CLEAR     19  14  81 CALM      30.44S
CHESTER        FAIR      23  14  68 NW3       30.41S
MERIDEN        CLEAR     19  14  81 CALM      30.45R
WILLIMANTIC    CLEAR     16  12  84 CALM      30.44S
OXFORD         CLEAR     18   9  68 CALM      30.41R
$$

MEZ002-015-021-024-NHZ003-005-008-011-012-014-VTZ005-008-161200-
NORTHERN NEW ENGLAND

CITY           SKY/WX    TMP DP  RH WIND       PRES   REMARKS
PORTLAND ME    CLEAR     14   7  73 CALM      30.40F
BANGOR ME      CLOUDY     9   3  77 CALM      30.41S
CONCORD NH     CLEAR      8   4  83 CALM      30.40F
MANCHESTER NH  NOT AVBL
NASHUA NH      NOT AVBL
PORTSMOUTH NH  CLEAR     15  11  85 CALM      30.40F
JAFFREY NH     NOT AVBL
KEENE NH       NOT AVBL
BURLINGTON VT  CLEAR     15   9  76 CALM      30.36F
MT. WASHINGTON PTCLDY     5 -13  43 W41         N/A  WCI -22
$$

NYZ052-076-161200-
EASTERN NEW YORK

CITY           SKY/WX    TMP DP  RH WIND       PRES   REMARKS
ALBANY         CLEAR     15  10  80 CALM      30.43S
NEW YORK CITY  CLEAR     32  18  56 N5        30.45R WCI  27
$$

ANZALL-161200-
MARINE OBSERVATIONS

STATION/POSITION TIME  TEMP    WIND        PRES    VSBY  WAVE
                       AIR SEA DIR/SP/G                  HT/PER
                 (UTC) (F)     (DEG/KT/KT) (MB)    (MI)  (FT/S)
BOSTON BUOY      0950   32 44  310/  4/  6 1029.9          1/ 4
BUZZARDS BAY     1000   32      60/  7/  7 1030.8F
NANTUCKET SOUND  0950   35 40   20/  4/  4 1030.4          1
MASS BAY-STELLWA 1004   31 44  300/  6/  8 1029.8R  1 7/8  1/ 5
ISLE OF SHOALS   1000   27     290/  9/  9 1030.0F
S OF BLOCK IS    1055      45                N/A           2/ 8
$$

......................KEY.........................
  SKY/WX - SKY CONDITION/PRESENT WEATHER
  TMP    - TEMPERATURE IN FAHRENHEIT
  DWPT   - DEWPOINT IN FAHRENHEIT
  RH     - RELATIVE HUMIDITY IN PERCENT
  WIND   - DIRECTION AND SPEED IN MPH
  PRES   - MEAN SEA LEVEL PRESSURE IN INCHES OF HG
  WCI    - WIND CHILL INDEX
  VSB    - VISIBILITY IN MILES
  HX     - HEAT INDEX
  TC     - TEMPERATURE IN CELSIUS
  VRB    - VARIABLE WIND DIRECTION
  N/A    - NOT AVAILABLE




USA.gov is the U.S. government's official web portal to all federal, state and local government web resources and services.